^^
B2 Weather Station Historical Data
Daily Summary for July 21, 2018 Units:  English    Metric   Both
Daily Weekly Monthly Yearly Custom
  High: Low: Average:
Temperature: 77.8 °F 68.0 °F 71.1 °F
Dew Point: 71.7 °F 65.9 °F 67.8 °F
Humidity: 94% 77% 90%
Wind Speed: 19.6mph 0.0mph 8mph
Wind Gust: 12.7mph - -
Wind- - WNW
Pressure: 29.78 in 29.62 in -
Precipitation: 0.02 in    
Historical Graphs
 
 
Tabular Data for July 21, 2018
Time Temperature Dew Point Pressure Wind Wind Speed Wind Gust Humidity Rainfall Rate (Hourly) solar
00:04 70.5 °F 67.1 °F 29.65 in West 5.0 mph 2.6 mph 89% 0.00 in 0.00 W/m2
00:09 70.5 °F 67.1 °F 29.65 in WSW 11.5 mph 0.8 mph 89% 0.00 in 0.00 W/m2
00:14 70.5 °F 67.1 °F 29.65 in West 9.2 mph 1.8 mph 89% 0.00 in 0.00 W/m2
00:19 70.6 °F 66.9 °F 29.64 in SW 3.5 mph 2.4 mph 88% 0.00 in 0.00 W/m2
00:24 70.6 °F 66.9 °F 29.65 in WSW 11.5 mph 3.2 mph 88% 0.00 in 0.00 W/m2
00:29 70.6 °F 66.9 °F 29.65 in WSW 10.4 mph 1.5 mph 88% 0.00 in 0.00 W/m2
00:34 70.5 °F 66.8 °F 29.65 in West 1.0 mph 2.3 mph 88% 0.00 in 0.00 W/m2
00:39 70.5 °F 66.8 °F 29.64 in West 11.5 mph 3.8 mph 88% 0.00 in 0.00 W/m2
00:44 70.6 °F 66.5 °F 29.64 in WNW 6.9 mph 1.9 mph 87% 0.00 in 0.00 W/m2
00:49 70.6 °F 66.5 °F 29.64 in WSW 10.4 mph 2.0 mph 87% 0.00 in 0.00 W/m2
00:54 70.7 °F 66.6 °F 29.64 in SW 8.1 mph 5.5 mph 87% 0.00 in 0.00 W/m2
00:59 70.7 °F 66.6 °F 29.64 in West 13.8 mph 7.6 mph 87% 0.00 in 0.00 W/m2
01:04 70.7 °F 66.6 °F 29.64 in WSW 11.5 mph 0.9 mph 87% 0.00 in 0.00 W/m2
01:09 70.6 °F 66.5 °F 29.64 in West 6.0 mph 4.2 mph 87% 0.00 in 0.00 W/m2
01:14 70.5 °F 66.8 °F 29.64 in WSW 4.0 mph 4.1 mph 88% 0.00 in 0.00 W/m2
01:19 70.3 °F 66.6 °F 29.64 in WNW 9.2 mph 1.3 mph 88% 0.00 in 0.00 W/m2
01:24 70.1 °F 66.4 °F 29.63 in WNW 6.0 mph 1.3 mph 88% 0.00 in 0.00 W/m2
01:29 70.0 °F 66.6 °F 29.63 in WSW 6.9 mph 0.6 mph 89% 0.00 in 0.00 W/m2
01:34 69.9 °F 66.5 °F 29.63 in WNW 9.2 mph 5.1 mph 89% 0.00 in 0.00 W/m2
01:39 69.8 °F 66.7 °F 29.63 in WNW 9.2 mph 2.9 mph 90% 0.00 in 0.00 W/m2
01:44 69.7 °F 66.6 °F 29.63 in West 6.9 mph 4.3 mph 90% 0.00 in 0.00 W/m2
01:49 69.6 °F 66.5 °F 29.63 in WNW 10.4 mph 3.7 mph 90% 0.00 in 0.00 W/m2
01:54 69.5 °F 66.4 °F 29.63 in West 10.4 mph 2.8 mph 90% 0.00 in 0.00 W/m2
01:59 69.5 °F 66.4 °F 29.63 in WSW 10.0 mph 3.9 mph 90% 0.00 in 0.00 W/m2
02:04 69.5 °F 66.4 °F 29.63 in West 3.5 mph 1.0 mph 90% 0.00 in 0.00 W/m2
02:09 69.6 °F 66.5 °F 29.63 in WSW 5.0 mph 2.1 mph 90% 0.00 in 0.00 W/m2
02:14 69.5 °F 66.4 °F 29.63 in WSW 8.1 mph 6.3 mph 90% 0.00 in 0.00 W/m2
02:19 69.5 °F 66.1 °F 29.63 in West 11.5 mph 6.7 mph 89% 0.00 in 0.00 W/m2
02:24 69.5 °F 66.1 °F 29.63 in NW 12.7 mph 4.0 mph 89% 0.00 in 0.00 W/m2
02:29 69.6 °F 66.2 °F 29.63 in WSW 11.5 mph 5.8 mph 89% 0.00 in 0.00 W/m2
02:34 69.5 °F 66.1 °F 29.62 in West 5.8 mph 4.8 mph 89% 0.00 in 0.00 W/m2
02:39 69.5 °F 66.1 °F 29.62 in West 11.5 mph 3.5 mph 89% 0.00 in 0.00 W/m2
02:44 69.5 °F 66.1 °F 29.62 in WNW 6.9 mph 6.4 mph 89% 0.00 in 0.00 W/m2
02:49 69.5 °F 66.1 °F 29.62 in WSW 10.4 mph 3.3 mph 89% 0.00 in 0.00 W/m2
02:54 69.4 °F 66.3 °F 29.62 in WNW 9.2 mph 0.3 mph 90% 0.00 in 0.00 W/m2
02:59 69.3 °F 66.2 °F 29.62 in WNW 7.0 mph 0.2 mph 90% 0.00 in 0.00 W/m2
03:04 69.3 °F 66.2 °F 29.63 in WSW 12.7 mph 2.0 mph 90% 0.00 in 0.00 W/m2
03:09 69.2 °F 66.5 °F 29.62 in WSW 9.0 mph 0.9 mph 91% 0.00 in 0.00 W/m2
03:14 68.9 °F 66.2 °F 29.62 in Calm   0.1 mph 91% 0.01 in 0.00 W/m2
03:19 68.7 °F 66.3 °F 29.62 in WNW 2.3 mph 1.0 mph 92% 0.01 in 0.00 W/m2
03:24 68.6 °F 66.2 °F 29.62 in Calm     92% 0.01 in 0.00 W/m2
03:29 68.6 °F 66.2 °F 29.62 in West 3.5 mph   92% 0.01 in 0.00 W/m2
03:34 68.6 °F 66.2 °F 29.62 in Calm   0.4 mph 92% 0.01 in 0.00 W/m2
03:39 68.6 °F 66.2 °F 29.62 in NW 9.2 mph 3.0 mph 92% 0.01 in 0.00 W/m2
03:44 68.6 °F 66.2 °F 29.62 in WNW 8.0 mph 1.4 mph 92% 0.01 in 0.00 W/m2
03:49 68.7 °F 66.3 °F 29.62 in Calm   0.4 mph 92% 0.01 in 0.00 W/m2
03:54 68.7 °F 66.3 °F 29.63 in WNW 3.5 mph   92% 0.01 in 0.00 W/m2
03:59 68.7 °F 66.3 °F 29.62 in West 6.9 mph 3.8 mph 92% 0.01 in 0.00 W/m2
04:04 68.7 °F 66.3 °F 29.62 in WNW 2.3 mph 3.6 mph 92% 0.01 in 0.00 W/m2
04:09 68.7 °F 66.3 °F 29.62 in WNW 9.2 mph   92% 0.01 in 0.00 W/m2
04:14 68.7 °F 66.3 °F 29.63 in WNW 2.3 mph   92% 0.00 in 0.00 W/m2
04:19 68.7 °F 66.3 °F 29.63 in Calm     92% 0.00 in 0.00 W/m2
04:24 68.7 °F 66.3 °F 29.63 in WNW 3.5 mph 0.2 mph 92% 0.00 in 0.00 W/m2
04:29 68.7 °F 66.6 °F 29.63 in WNW 11.5 mph 0.6 mph 93% 0.00 in 0.00 W/m2
04:34 68.7 °F 66.6 °F 29.63 in NW 1.2 mph   93% 0.00 in 0.00 W/m2
04:39 68.7 °F 66.6 °F 29.63 in WNW 4.6 mph   93% 0.00 in 0.00 W/m2
04:44 68.7 °F 66.6 °F 29.63 in Calm     93% 0.00 in 0.00 W/m2
04:49 68.8 °F 66.7 °F 29.63 in WNW 1.2 mph   93% 0.00 in 0.00 W/m2
04:54 68.7 °F 66.6 °F 29.64 in NW 2.3 mph 0.1 mph 93% 0.00 in 0.00 W/m2
04:59 68.7 °F 66.6 °F 29.64 in WNW 3.5 mph 0.2 mph 93% 0.00 in 0.00 W/m2
05:04 68.8 °F 66.7 °F 29.64 in WNW 10.4 mph 0.7 mph 93% 0.00 in 0.00 W/m2
05:09 68.7 °F 66.6 °F 29.64 in WNW 3.5 mph 0.1 mph 93% 0.00 in 0.00 W/m2
05:14 68.6 °F 66.5 °F 29.64 in WNW 2.3 mph 2.1 mph 93% 0.00 in 0.00 W/m2
05:19 68.6 °F 66.5 °F 29.65 in Calm     93% 0.00 in 0.00 W/m2
05:24 68.5 °F 66.4 °F 29.65 in Calm     93% 0.00 in 0.00 W/m2
05:29 68.5 °F 66.4 °F 29.65 in WNW 9.2 mph 0.6 mph 93% 0.00 in 0.00 W/m2
05:34 68.5 °F 66.4 °F 29.65 in West 7.0 mph 1.3 mph 93% 0.00 in 0.00 W/m2
05:39 68.5 °F 66.4 °F 29.65 in WNW 4.0 mph 0.5 mph 93% 0.00 in 0.00 W/m2
05:44 68.5 °F 66.4 °F 29.65 in West 11.5 mph   93% 0.00 in 0.00 W/m2
05:49 68.5 °F 66.4 °F 29.65 in WNW 10.4 mph 1.5 mph 93% 0.00 in 5.00 W/m2
05:54 68.4 °F 66.3 °F 29.65 in NW 1.2 mph 0.3 mph 93% 0.00 in 5.00 W/m2
05:59 68.4 °F 66.3 °F 29.65 in WNW 8.1 mph 1.0 mph 93% 0.00 in 9.00 W/m2
06:04 68.4 °F 66.3 °F 29.64 in West 9.2 mph 0.6 mph 93% 0.00 in 12.00 W/m2
06:09 68.4 °F 66.3 °F 29.65 in NW 9.2 mph 1.2 mph 93% 0.00 in 9.00 W/m2
06:14 68.4 °F 66.3 °F 29.65 in WNW 11.5 mph   93% 0.00 in 12.00 W/m2
06:19 68.4 °F 66.3 °F 29.65 in NW 11.5 mph   93% 0.00 in 30.00 W/m2
06:24 68.4 °F 66.3 °F 29.65 in NW 11.5 mph 2.1 mph 93% 0.00 in 30.00 W/m2
06:29 68.3 °F 66.2 °F 29.65 in WNW 10.4 mph 0.2 mph 93% 0.00 in 46.00 W/m2
06:34 68.3 °F 66.2 °F 29.65 in West 3.5 mph 2.8 mph 93% 0.00 in 23.00 W/m2
06:39 68.2 °F 66.1 °F 29.66 in WNW 2.3 mph 0.6 mph 93% 0.00 in 28.00 W/m2
06:44 68.1 °F 66.0 °F 29.66 in WNW 3.5 mph 0.8 mph 93% 0.00 in 21.00 W/m2
06:49 68.0 °F 65.9 °F 29.66 in WNW 4.0 mph 0.9 mph 93% 0.00 in 21.00 W/m2
06:54 68.0 °F 66.2 °F 29.66 in NNW 11.5 mph 1.6 mph 94% 0.00 in 47.00 W/m2
06:59 68.1 °F 66.3 °F 29.66 in NW 4.0 mph 0.3 mph 94% 0.00 in 32.00 W/m2
07:04 68.2 °F 66.4 °F 29.66 in NNW 5.8 mph 3.0 mph 94% 0.00 in 42.00 W/m2
07:09 68.2 °F 66.4 °F 29.66 in NW 3.5 mph 0.4 mph 94% 0.00 in 49.00 W/m2
07:14 68.3 °F 66.2 °F 29.66 in NW 10.4 mph 0.9 mph 93% 0.00 in 53.00 W/m2
07:19 68.3 °F 66.2 °F 29.67 in NW 6.9 mph 1.5 mph 93% 0.00 in 42.00 W/m2
07:24 68.3 °F 66.2 °F 29.66 in WNW 9.2 mph 2.5 mph 93% 0.00 in 49.00 W/m2
07:29 68.3 °F 66.2 °F 29.67 in NNW 9.2 mph 0.9 mph 93% 0.00 in 91.00 W/m2
07:34 68.6 °F 66.5 °F 29.67 in NW 2.3 mph 0.8 mph 93% 0.00 in 237.00 W/m2
07:39 68.9 °F 67.1 °F 29.67 in NW 10.4 mph 7.0 mph 94% 0.00 in 149.00 W/m2
07:44 68.9 °F 67.1 °F 29.67 in NNW 10.4 mph 4.6 mph 94% 0.00 in 121.00 W/m2
07:49 69.0 °F 66.9 °F 29.67 in NNW 8.1 mph 1.8 mph 93% 0.00 in 93.00 W/m2
07:54 68.8 °F 67.0 °F 29.67 in NW 10.4 mph 1.3 mph 94% 0.00 in 111.00 W/m2
07:59 68.7 °F 66.9 °F 29.68 in NNW 10.4 mph 8.4 mph 94% 0.01 in 97.00 W/m2
08:04 68.6 °F 66.8 °F 29.68 in WNW 11.5 mph 1.0 mph 94% 0.01 in 113.00 W/m2
08:09 68.7 °F 66.9 °F 29.68 in NNW 3.5 mph 3.7 mph 94% 0.01 in 118.00 W/m2
08:14 68.8 °F 67.0 °F 29.68 in NW 12.7 mph 2.6 mph 94% 0.01 in 158.00 W/m2
08:19 69.0 °F 67.2 °F 29.68 in West 3.5 mph 1.3 mph 94% 0.01 in 102.00 W/m2
08:24 69.0 °F 67.2 °F 29.68 in WNW 9.2 mph 3.7 mph 94% 0.01 in 128.00 W/m2
08:29 69.0 °F 67.2 °F 29.68 in WNW 5.8 mph 1.0 mph 94% 0.01 in 130.00 W/m2
08:34 69.0 °F 67.2 °F 29.68 in WNW 4.6 mph 2.3 mph 94% 0.01 in 97.00 W/m2
08:39 69.0 °F 67.2 °F 29.68 in NW 2.3 mph 0.4 mph 94% 0.01 in 151.00 W/m2
08:44 69.0 °F 67.2 °F 29.69 in NW 9.2 mph 3.2 mph 94% 0.01 in 67.00 W/m2
08:49 68.9 °F 67.1 °F 29.69 in WNW 12.0 mph 4.5 mph 94% 0.01 in 134.00 W/m2
08:54 68.9 °F 67.1 °F 29.69 in NW 3.5 mph   94% 0.01 in 102.00 W/m2
08:59 69.1 °F 67.3 °F 29.69 in WNW 8.1 mph 0.4 mph 94% 0.00 in 102.00 W/m2
09:04 69.1 °F 67.3 °F 29.69 in NW 13.8 mph 3.0 mph 94% 0.00 in 120.00 W/m2
09:09 69.2 °F 67.4 °F 29.69 in NNW 13.8 mph 5.8 mph 94% 0.00 in 160.00 W/m2
09:14 69.4 °F 67.6 °F 29.69 in WNW 11.5 mph 5.7 mph 94% 0.00 in 193.00 W/m2
09:19 69.5 °F 67.7 °F 29.69 in NNW 12.0 mph 9.1 mph 94% 0.00 in 153.00 W/m2
09:24 69.6 °F 67.5 °F 29.69 in NNW 11.5 mph 5.3 mph 93% 0.00 in 188.00 W/m2
09:29 69.5 °F 67.4 °F 29.69 in NNW 13.8 mph 4.9 mph 93% 0.00 in 171.00 W/m2
09:34 69.5 °F 67.4 °F 29.69 in NW 11.5 mph 5.6 mph 93% 0.00 in 244.00 W/m2
09:39 69.7 °F 67.6 °F 29.70 in NNW 10.4 mph 6.5 mph 93% 0.00 in 225.00 W/m2
09:44 70.1 °F 68.3 °F 29.70 in NW 11.5 mph 4.1 mph 94% 0.00 in 209.00 W/m2
09:49 70.1 °F 68.0 °F 29.70 in WNW 10.0 mph 3.6 mph 93% 0.00 in 162.00 W/m2
09:54 70.0 °F 67.9 °F 29.70 in NW 6.9 mph 2.3 mph 93% 0.00 in 200.00 W/m2
09:59 70.1 °F 68.0 °F 29.70 in NNW 11.5 mph 2.7 mph 93% 0.00 in 248.00 W/m2
10:04 70.4 °F 68.3 °F 29.70 in NNW 14.0 mph 7.2 mph 93% 0.00 in 374.00 W/m2
10:09 70.7 °F 68.6 °F 29.70 in NW 12.7 mph 4.4 mph 93% 0.00 in 183.00 W/m2
10:14 70.8 °F 68.4 °F 29.70 in NW 11.5 mph 4.5 mph 92% 0.00 in 272.00 W/m2
10:19 71.0 °F 68.6 °F 29.70 in North 12.7 mph 8.0 mph 92% 0.00 in 234.00 W/m2
10:24 71.1 °F 68.7 °F 29.70 in NW 8.1 mph 1.8 mph 92% 0.00 in 185.00 W/m2
10:29 71.1 °F 68.3 °F 29.70 in WNW 12.7 mph 7.1 mph 91% 0.00 in 158.00 W/m2
10:34 71.2 °F 68.4 °F 29.70 in North 10.4 mph 1.5 mph 91% 0.00 in 269.00 W/m2
10:39 71.3 °F 68.5 °F 29.71 in NNW 11.5 mph 4.0 mph 91% 0.00 in 130.00 W/m2
10:44 71.3 °F 68.5 °F 29.71 in NW 6.9 mph 4.7 mph 91% 0.00 in 179.00 W/m2
10:49 71.2 °F 68.4 °F 29.71 in NW 15.0 mph 6.0 mph 91% 0.00 in 193.00 W/m2
10:54 71.2 °F 68.4 °F 29.71 in NW 13.8 mph 10.1 mph 91% 0.00 in 223.00 W/m2
10:59 71.1 °F 68.3 °F 29.71 in North 17.3 mph 12.4 mph 91% 0.00 in 236.00 W/m2
11:04 71.2 °F 68.4 °F 29.72 in NNW 13.8 mph 6.8 mph 91% 0.00 in 163.00 W/m2
11:09 71.1 °F 68.3 °F 29.72 in NNW 13.8 mph 9.5 mph 91% 0.00 in 186.00 W/m2
11:14 71.2 °F 68.4 °F 29.72 in NW 15.0 mph 10.2 mph 91% 0.00 in 308.00 W/m2
11:19 71.4 °F 68.6 °F 29.72 in North 10.0 mph 7.6 mph 91% 0.00 in 255.00 W/m2
11:24 71.5 °F 68.4 °F 29.72 in NNW 16.1 mph 9.3 mph 90% 0.00 in 90.00 W/m2
11:29 71.0 °F 68.2 °F 29.72 in NW 12.7 mph 5.0 mph 91% 0.00 in 174.00 W/m2
11:34 70.8 °F 68.4 °F 29.72 in NNW 11.5 mph 5.5 mph 92% 0.00 in 162.00 W/m2
11:39 70.5 °F 68.1 °F 29.72 in WNW 15.0 mph 7.9 mph 92% 0.00 in 153.00 W/m2
11:44 70.3 °F 67.9 °F 29.73 in NW 13.8 mph 9.6 mph 92% 0.00 in 192.00 W/m2
11:49 70.1 °F 68.0 °F 29.73 in NNW 17.3 mph 9.8 mph 93% 0.00 in 149.00 W/m2
11:54 70.2 °F 68.1 °F 29.73 in NNW 11.0 mph 9.8 mph 93% 0.00 in 79.00 W/m2
11:59 69.9 °F 67.5 °F 29.73 in NNW 13.8 mph 10.0 mph 92% 0.00 in 86.00 W/m2
12:04 69.8 °F 67.4 °F 29.73 in NNW 16.0 mph 12.2 mph 92% 0.00 in 139.00 W/m2
12:09 69.9 °F 67.5 °F 29.73 in NNW 12.7 mph 7.7 mph 92% 0.00 in 155.00 W/m2
12:14 69.9 °F 67.8 °F 29.73 in NNW 14.0 mph 10.5 mph 93% 0.00 in 341.00 W/m2
12:19 70.6 °F 68.5 °F 29.73 in NNW 11.5 mph 9.2 mph 93% 0.00 in 450.00 W/m2
12:24 71.9 °F 69.4 °F 29.72 in NNW 15.0 mph 9.2 mph 92% 0.00 in 517.00 W/m2
12:29 72.3 °F 69.2 °F 29.72 in NNW 15.0 mph 9.8 mph 90% 0.00 in 434.00 W/m2
12:34 72.8 °F 70.0 °F 29.73 in NNW 5.8 mph 5.4 mph 91% 0.00 in 339.00 W/m2
12:39 72.6 °F 69.2 °F 29.73 in NNW 19.6 mph 12.5 mph 89% 0.00 in 392.00 W/m2
12:44 72.7 °F 69.3 °F 29.73 in NNW 15.0 mph 9.9 mph 89% 0.00 in 323.00 W/m2
12:49 72.9 °F 69.5 °F 29.73 in NNW 9.2 mph 7.2 mph 89% 0.00 in 325.00 W/m2
12:54 73.2 °F 69.8 °F 29.73 in NE 16.0 mph 7.5 mph 89% 0.00 in 390.00 W/m2
12:59 73.6 °F 69.2 °F 29.73 in NNW 19.6 mph 12.1 mph 86% 0.00 in 729.00 W/m2
13:04 74.1 °F 69.6 °F 29.72 in NNE 13.8 mph 10.8 mph 86% 0.00 in 814.00 W/m2
13:09 74.8 °F 70.3 °F 29.72 in NNW 15.0 mph 5.5 mph 86% 0.00 in 891.00 W/m2
13:14 75.0 °F 69.5 °F 29.72 in North 17.3 mph 12.7 mph 83% 0.00 in 570.00 W/m2
13:19 75.1 °F 69.6 °F 29.72 in NNW 16.1 mph 7.6 mph 83% 0.00 in 417.00 W/m2
13:24 75.1 °F 69.6 °F 29.73 in NNW 15.0 mph 8.3 mph 83% 0.00 in 427.00 W/m2
13:29 75.0 °F 69.1 °F 29.73 in NNW 16.1 mph 11.8 mph 82% 0.00 in 424.00 W/m2
13:34 74.8 °F 69.3 °F 29.73 in NNW 13.8 mph 12.5 mph 83% 0.00 in 427.00 W/m2
13:39 74.9 °F 69.7 °F 29.73 in North 15.0 mph 5.7 mph 84% 0.00 in 418.00 W/m2
13:44 75.0 °F 69.1 °F 29.72 in NNW 16.1 mph 10.3 mph 82% 0.00 in 417.00 W/m2
13:49 75.1 °F 69.6 °F 29.72 in North 11.5 mph 7.0 mph 83% 0.00 in 436.00 W/m2
13:54 75.2 °F 69.3 °F 29.72 in NNW 15.0 mph 9.4 mph 82% 0.00 in 487.00 W/m2
13:59 75.5 °F 70.0 °F 29.72 in North 11.0 mph 8.5 mph 83% 0.00 in 501.00 W/m2
14:04 76.1 °F 70.9 °F 29.72 in North 8.0 mph 5.0 mph 84% 0.00 in 496.00 W/m2
14:09 76.9 °F 71.7 °F 29.72 in North 12.7 mph 1.4 mph 84% 0.00 in 552.00 W/m2
14:14 76.8 °F 70.2 °F 29.72 in NNW 11.5 mph 4.6 mph 80% 0.00 in 258.00 W/m2
14:19 76.1 °F 69.8 °F 29.72 in NNW 5.8 mph 0.3 mph 81% 0.00 in 322.00 W/m2
14:24 76.3 °F 70.4 °F 29.72 in NNW 11.5 mph 3.5 mph 82% 0.00 in 482.00 W/m2
14:29 76.6 °F 70.3 °F 29.72 in NNW 12.7 mph 4.5 mph 81% 0.00 in 450.00 W/m2
14:34 76.3 °F 69.7 °F 29.73 in NNW 11.5 mph 8.1 mph 80% 0.00 in 188.00 W/m2
14:39 76.1 °F 69.8 °F 29.72 in NNW 10.4 mph 6.1 mph 81% 0.00 in 424.00 W/m2
14:44 76.6 °F 70.7 °F 29.73 in NNW 13.8 mph 5.6 mph 82% 0.00 in 496.00 W/m2
14:49 76.9 °F 70.3 °F 29.73 in NNW 10.4 mph 7.1 mph 80% 0.00 in 257.00 W/m2
14:54 76.6 °F 70.0 °F 29.73 in NNW 12.7 mph 7.7 mph 80% 0.00 in 332.00 W/m2
14:59 76.6 °F 70.7 °F 29.73 in NNW 9.0 mph 3.7 mph 82% 0.00 in 436.00 W/m2
15:04 76.9 °F 70.6 °F 29.72 in NNW 17.0 mph 7.9 mph 81% 0.00 in 478.00 W/m2
15:09 77.8 °F 70.4 °F 29.72 in NW 12.7 mph 9.5 mph 78% 0.00 in 621.00 W/m2
15:14 77.6 °F 70.2 °F 29.73 in NNW 10.4 mph 5.2 mph 78% 0.00 in 260.00 W/m2
15:19 77.5 °F 70.5 °F 29.73 in NNW 14.0 mph 6.2 mph 79% 0.00 in 320.00 W/m2
15:24 76.6 °F 68.8 °F 29.73 in North 15.0 mph 11.2 mph 77% 0.00 in 167.00 W/m2
15:29 75.6 °F 68.6 °F 29.73 in NNW 13.8 mph 8.4 mph 79% 0.00 in 109.00 W/m2
15:34 75.1 °F 68.9 °F 29.73 in NNW 11.5 mph 6.3 mph 81% 0.00 in 69.00 W/m2
15:39 74.4 °F 68.5 °F 29.73 in North 17.3 mph 8.2 mph 82% 0.00 in 62.00 W/m2
15:44 73.3 °F 68.5 °F 29.74 in North 9.2 mph 5.8 mph 85% 0.00 in 146.00 W/m2
15:49 73.0 °F 68.9 °F 29.73 in NNW 10.4 mph 5.0 mph 87% 0.00 in 334.00 W/m2
15:54 73.3 °F 69.5 °F 29.74 in NNE 6.9 mph 5.0 mph 88% 0.00 in 223.00 W/m2
15:59 73.4 °F 69.6 °F 29.74 in North 6.9 mph 0.7 mph 88% 0.00 in 162.00 W/m2
16:04 73.4 °F 69.6 °F 29.74 in NNW 8.1 mph 3.9 mph 88% 0.00 in 178.00 W/m2
16:09 73.5 °F 69.7 °F 29.74 in NNW 6.9 mph 3.9 mph 88% 0.00 in 116.00 W/m2
16:14 73.5 °F 69.7 °F 29.74 in NNW 4.6 mph 4.2 mph 88% 0.00 in 120.00 W/m2
16:19 73.6 °F 69.8 °F 29.74 in NNW 9.2 mph 6.2 mph 88% 0.00 in 151.00 W/m2
16:24 73.7 °F 69.6 °F 29.74 in NW 13.8 mph 5.2 mph 87% 0.00 in 192.00 W/m2
16:29 74.6 °F 70.8 °F 29.74 in North 9.2 mph 5.0 mph 88% 0.00 in 499.00 W/m2
16:34 75.1 °F 69.9 °F 29.74 in North 16.1 mph 9.0 mph 84% 0.00 in 276.00 W/m2
16:39 75.2 °F 70.0 °F 29.74 in North 10.4 mph 6.5 mph 84% 0.00 in 313.00 W/m2
16:44 76.2 °F 71.4 °F 29.74 in NNW 9.2 mph 8.4 mph 85% 0.00 in 696.00 W/m2
16:49 76.7 °F 70.8 °F 29.74 in North 10.0 mph 8.4 mph 82% 0.00 in 417.00 W/m2
16:54 75.8 °F 69.6 °F 29.75 in NNE 15.0 mph 6.3 mph 81% 0.00 in 355.00 W/m2
16:59 75.5 °F 70.0 °F 29.75 in ENE 16.1 mph 5.9 mph 83% 0.00 in 318.00 W/m2
17:04 74.3 °F 69.1 °F 29.75 in NNE 11.5 mph 9.6 mph 84% 0.00 in 146.00 W/m2
17:09 73.1 °F 68.7 °F 29.75 in North 6.9 mph 1.4 mph 86% 0.00 in 81.00 W/m2
17:14 72.4 °F 68.3 °F 29.75 in NNE 6.9 mph 1.5 mph 87% 0.00 in 149.00 W/m2
17:19 72.1 °F 68.7 °F 29.75 in North 5.0 mph 5.7 mph 89% 0.00 in 258.00 W/m2
17:24 72.8 °F 69.4 °F 29.75 in NNE 10.0 mph 5.6 mph 89% 0.00 in 380.00 W/m2
17:29 73.6 °F 69.5 °F 29.75 in North 8.1 mph 5.9 mph 87% 0.00 in 501.00 W/m2
17:34 73.7 °F 69.2 °F 29.75 in NNE 9.2 mph 3.6 mph 86% 0.00 in 520.00 W/m2
17:39 73.9 °F 69.1 °F 29.75 in North 8.1 mph 5.2 mph 85% 0.00 in 156.00 W/m2
17:44 73.5 °F 69.1 °F 29.75 in North 5.8 mph 0.1 mph 86% 0.00 in 102.00 W/m2
17:49 72.9 °F 68.5 °F 29.75 in North 5.8 mph 1.7 mph 86% 0.00 in 97.00 W/m2
17:54 72.6 °F 68.5 °F 29.75 in NNE 6.9 mph 2.2 mph 87% 0.00 in 125.00 W/m2
17:59 72.6 °F 68.8 °F 29.75 in North 3.5 mph 1.5 mph 88% 0.00 in 183.00 W/m2
18:04 73.2 °F 69.4 °F 29.75 in Calm   0.9 mph 88% 0.00 in 332.00 W/m2
18:09 73.8 °F 69.7 °F 29.75 in North 4.6 mph   87% 0.00 in 301.00 W/m2
18:14 73.8 °F 69.3 °F 29.75 in North 5.8 mph   86% 0.00 in 116.00 W/m2
18:19 73.8 °F 69.7 °F 29.75 in North 3.5 mph 1.4 mph 87% 0.00 in 318.00 W/m2
18:24 74.2 °F 70.1 °F 29.74 in North 3.5 mph 0.2 mph 87% 0.00 in 192.00 W/m2
18:29 74.4 °F 69.9 °F 29.74 in North 3.5 mph   86% 0.00 in 290.00 W/m2
18:34 74.6 °F 70.1 °F 29.75 in North 3.5 mph 1.0 mph 86% 0.00 in 236.00 W/m2
18:39 74.8 °F 70.0 °F 29.74 in North 4.6 mph 1.6 mph 85% 0.00 in 185.00 W/m2
18:44 74.8 °F 70.0 °F 29.74 in North 6.9 mph 3.7 mph 85% 0.00 in 188.00 W/m2
18:49 74.6 °F 69.4 °F 29.75 in NNE 7.0 mph 2.3 mph 84% 0.00 in 84.00 W/m2
18:54 74.3 °F 69.5 °F 29.75 in NNE 8.0 mph 4.0 mph 85% 0.00 in 165.00 W/m2
18:59 74.2 °F 69.4 °F 29.75 in NNE 8.1 mph 3.7 mph 85% 0.00 in 100.00 W/m2
19:04 73.8 °F 69.0 °F 29.75 in North 8.1 mph 2.7 mph 85% 0.00 in 98.00 W/m2
19:09 73.4 °F 68.6 °F 29.75 in North 6.9 mph 1.4 mph 85% 0.00 in 56.00 W/m2
19:14 73.1 °F 68.7 °F 29.75 in NNE 1.2 mph   86% 0.00 in 76.00 W/m2
19:19 72.8 °F 68.7 °F 29.75 in Calm     87% 0.00 in 39.00 W/m2
19:24 72.6 °F 68.5 °F 29.75 in North 1.2 mph   87% 0.00 in 37.00 W/m2
19:29 72.3 °F 68.5 °F 29.75 in Calm   0.5 mph 88% 0.00 in 35.00 W/m2
19:34 72.0 °F 68.2 °F 29.75 in Calm     88% 0.00 in 32.00 W/m2
19:39 71.8 °F 68.4 °F 29.75 in Calm     89% 0.00 in 28.00 W/m2
19:44 71.6 °F 68.2 °F 29.75 in Calm     89% 0.00 in 26.00 W/m2
19:49 71.4 °F 68.3 °F 29.75 in Calm     90% 0.00 in 23.00 W/m2
19:54 71.1 °F 68.0 °F 29.76 in Calm     90% 0.00 in 19.00 W/m2
19:59 70.8 °F 67.7 °F 29.76 in Calm     90% 0.00 in 18.00 W/m2
20:04 70.5 °F 67.7 °F 29.76 in Calm     91% 0.00 in 14.00 W/m2
20:09 70.4 °F 67.6 °F 29.76 in Calm     91% 0.00 in 7.00 W/m2
20:14 70.3 °F 67.5 °F 29.76 in Calm     91% 0.00 in 5.00 W/m2
20:19 70.3 °F 67.9 °F 29.76 in Calm     92% 0.00 in 0.00 W/m2
20:24 70.4 °F 68.0 °F 29.76 in Calm     92% 0.00 in 0.00 W/m2
20:29 70.5 °F 68.1 °F 29.76 in Calm     92% 0.00 in 0.00 W/m2
20:34 70.5 °F 68.1 °F 29.76 in Calm     92% 0.00 in 0.00 W/m2
20:39 70.6 °F 68.2 °F 29.76 in Calm     92% 0.00 in 0.00 W/m2
20:44 70.5 °F 68.1 °F 29.76 in Calm     92% 0.00 in 0.00 W/m2
20:49 70.4 °F 68.0 °F 29.76 in Calm     92% 0.00 in 0.00 W/m2
20:54 70.4 °F 68.0 °F 29.76 in Calm     92% 0.00 in 0.00 W/m2
20:59 70.4 °F 67.6 °F 29.76 in Calm     91% 0.00 in 0.00 W/m2
21:04 70.5 °F 67.7 °F 29.77 in Calm     91% 0.00 in 0.00 W/m2
21:09 70.6 °F 67.8 °F 29.77 in NNW 3.5 mph   91% 0.00 in 0.00 W/m2
21:14 70.6 °F 67.8 °F 29.77 in NNW 1.2 mph   91% 0.00 in 0.00 W/m2
21:19 70.6 °F 67.8 °F 29.77 in NNW 4.0 mph 1.8 mph 91% 0.00 in 0.00 W/m2
21:24 70.7 °F 67.9 °F 29.77 in NNW 3.5 mph 1.4 mph 91% 0.00 in 0.00 W/m2
21:29 70.7 °F 67.9 °F 29.77 in NNW 4.6 mph 0.4 mph 91% 0.00 in 0.00 W/m2
21:34 70.8 °F 68.0 °F 29.77 in NNW 3.5 mph 1.9 mph 91% 0.00 in 0.00 W/m2
21:39 70.8 °F 68.0 °F 29.77 in North 6.9 mph 4.1 mph 91% 0.00 in 0.00 W/m2
21:44 70.8 °F 67.7 °F 29.78 in NNW 10.4 mph 6.8 mph 90% 0.00 in 0.00 W/m2
21:49 70.8 °F 67.7 °F 29.78 in NNW 9.2 mph 5.1 mph 90% 0.00 in 0.00 W/m2
21:54 70.7 °F 67.6 °F 29.78 in NNW 4.6 mph 4.4 mph 90% 0.00 in 0.00 W/m2
21:59 70.6 °F 67.2 °F 29.77 in North 8.1 mph 4.1 mph 89% 0.00 in 0.00 W/m2
22:04 70.5 °F 67.1 °F 29.78 in NNW 6.0 mph 2.1 mph 89% 0.00 in 0.00 W/m2
22:09 70.4 °F 67.0 °F 29.78 in NNW 9.0 mph 4.5 mph 89% 0.00 in 0.00 W/m2
22:14 70.3 °F 66.9 °F 29.78 in NNW 6.0 mph 5.0 mph 89% 0.00 in 0.00 W/m2
22:19 70.1 °F 67.0 °F 29.77 in NNW 8.1 mph 3.2 mph 90% 0.00 in 0.00 W/m2
22:24 70.0 °F 66.9 °F 29.77 in NNW 4.6 mph 2.5 mph 90% 0.00 in 0.00 W/m2
22:29 69.8 °F 67.1 °F 29.77 in NNW 5.0 mph 2.6 mph 91% 0.00 in 0.00 W/m2
22:34 69.7 °F 67.0 °F 29.77 in NNW 6.9 mph 4.1 mph 91% 0.00 in 0.00 W/m2
22:39 69.5 °F 66.8 °F 29.77 in NNW 6.0 mph 4.8 mph 91% 0.00 in 0.00 W/m2
22:44 69.4 °F 66.7 °F 29.77 in NNW 3.0 mph 2.8 mph 91% 0.00 in 0.00 W/m2
22:49 69.3 °F 66.9 °F 29.77 in North 5.0 mph 2.2 mph 92% 0.00 in 0.00 W/m2
22:54 69.2 °F 66.8 °F 29.77 in NNW 5.8 mph 2.7 mph 92% 0.00 in 0.00 W/m2
22:59 69.2 °F 66.8 °F 29.77 in NNW 5.8 mph 0.9 mph 92% 0.00 in 0.00 W/m2
23:04 69.2 °F 66.8 °F 29.77 in NNW 6.0 mph 3.0 mph 92% 0.00 in 0.00 W/m2
23:09 69.2 °F 66.8 °F 29.77 in NNW 3.5 mph   92% 0.00 in 0.00 W/m2
23:14 69.2 °F 66.8 °F 29.77 in NW 6.9 mph 1.2 mph 92% 0.00 in 0.00 W/m2
23:19 69.2 °F 66.8 °F 29.77 in NNW 5.8 mph 2.2 mph 92% 0.00 in 0.00 W/m2
23:24 69.2 °F 66.8 °F 29.77 in NW 6.0 mph 1.1 mph 92% 0.00 in 0.00 W/m2
23:29 69.2 °F 66.8 °F 29.77 in NNW 8.1 mph   92% 0.00 in 0.00 W/m2
23:34 69.1 °F 66.7 °F 29.76 in NW 9.2 mph 4.4 mph 92% 0.00 in 0.00 W/m2
23:39 68.9 °F 66.5 °F 29.76 in NW 4.0 mph 0.6 mph 92% 0.00 in 0.00 W/m2
23:44 68.8 °F 66.4 °F 29.76 in NNW 5.8 mph 1.4 mph 92% 0.00 in 0.00 W/m2
23:49 68.7 °F 66.6 °F 29.76 in NNW 8.1 mph 2.0 mph 93% 0.00 in 0.00 W/m2
23:54 68.6 °F 66.5 °F 29.77 in NNW 6.9 mph 1.3 mph 93% 0.00 in 0.00 W/m2
23:59 68.6 °F 66.5 °F 29.76 in WNW 6.9 mph 0.5 mph 93% 0.00 in 0.00 W/m2
Bourbonnais, Illinois, USA
Compliments of Weather Underground - 4 mb